Tracking 19247 objects as of 22-Sep-2018
HD Live streaming from Space Station
objects crossing your sky now

RUBIN 9.1/RUBIN 9.2/PSLV

Track RUBIN 9.1/RUBIN 9.2/PSLV now!
10-day predictions
RUBIN 9.1/RUBIN 9.2/PSLV is classified as:


NORAD ID: 35936
Int'l Code: 2009-051F
Perigee: 720.3 km
Apogee: 799.1 km
Inclination: 98.0 °
Period: 99.9 minutes
Semi major axis: 7130 km
RCS: 5.72 m2 (large)
Launch date: September 23, 2009
Source: Germany (GER)
Launch site: SRIHARIKOTA (SRI)

RUBIN 9.1 & RUBIN 9.2 are demonstration payloads for the Automatic Identification System, a communications network used to track and identify shipping vessels."
aabbcc
Your satellite tracking list
Your tracking list is empty




NASA's NSSDC Master Catalog

Two Line Element Set (TLE):
1 35936U 09051F   18263.85590804 -.00000000 +00000-0 +12263-4 0  9999
2 35936 098.0247 258.0065 0055209 350.9945 009.0251 14.41802791473154
Source of the keplerian elements: AFSPC